Regional Weather Roundup
Issued by NWS New Orleans/Baton Rouge, LA

Home | Current Version | Previous Version | Text Only | Print | Product List | Glossary On
Versions: 1 2 3 4 5 6 7 8 9 10 11 12 13 14 15 16 17 18 19 20 21 22 23 24 25 26 27
000
ASUS44 KLIX 310412
RWRLIX
NEW ORLEANS REGIONAL WEATHER ROUNDUP
NATIONAL WEATHER SERVICE NEW ORLEANS LA
1100 PM CDT MON MAY 30 2016

NOTE: "FAIR" INDICATES FEW OR NO CLOUDS BELOW 12,000 FEET WITH NO
      SIGNIFICANT WEATHER AND/OR OBSTRUCTIONS TO VISIBILITY.
      SKY/WX - SKY CONDITION AND SIGNIFICANT WEATHER.
      TMP - AIR TEMPERATURE.     DP    - DEWPOINT TEMPERATURE.
      RH  - RELATIVE HUMIDITY.   PRES  - PRESSURE.
      HI  - HEAT INDEX.          WCI   - WIND CHILL INDEX.

*  THESE STATIONS ARE NOT NWS OR FAA STATIONS AND ARE NOT UNDER
   NWS QUALITY CONTROL.

LAZ038-040-048-061>063-065>067-069-310500-
SOUTHEAST LOUISIANA

CITY           SKY/WX    TMP DP  RH WIND       PRES   REMARKS
N.O. AUDUBON     N/A     76  70  82 MISG        N/A
N.O. INTL ARPT PTCLDY    77  69  76 VRB3      29.96S
N.O. LAKEFRONT CLEAR     80  69  69 SW8       29.97R
N.O. DOWNTOWN*   N/A     79  70  74 S5        29.97R
RESERVE*         N/A     76  73  92 CALM      29.96S
SLIDELL        CLEAR     75  72  90 CALM      29.96R
BATON ROUGE    CLEAR     73  68  84 NE5       29.97R
BOOTHVILLE     CLEAR     76  70  82 CALM      29.98R
BELLE CHASSE   PTCLDY    73  70  90 SW3       29.97R
BOGALUSA*        N/A     74  69  83 CALM      29.98R
GALLIANO*      CLEAR     71  68  91 S3        29.97S
NEW ROADS*       N/A     73  66  78 NE3       29.97R
GONZALES*        N/A     74  73  97 CALM      29.96R
HAMMOND*       MOCLDY    73  68  83 CALM      29.96S
HOUMA*         CLEAR     73  71  92 CALM      29.97S
PORT FOURCHON* CLEAR     81  68  65 SW5       29.98S

$$

MSZ070-080>082-310500-
SOUTHERN MISSISSIPPI

CITY           SKY/WX    TMP DP  RH WIND       PRES   REMARKS
MCCOMB         CLOUDY    69  67  93 CALM      29.97R
GULFPORT       CLOUDY    76  74  93 CALM      29.95R
BILOXI         CLOUDY    79  74  84 CALM      29.95S
PASCAGOULA     MOCLDY    70  69  97 CALM      29.96R

$$

COASTAL OBSERVATIONS
LAKE AND NEARSHORE STATIONS

STATION/POSITION TIME  TEMP    WIND        PRES    WAVE
                       AIR SEA DIR/SP/G            HT/PER
                 (UTC) (F)     (DEG/KT/KT) (MB)    (FT/S)
PASCAGOULA       0312   76                   N/A
WAVELAND YACHT   0300      82                N/A
GRAND ISLE       0300      84                N/A
SOUTHWEST PASS   0300          240/  5/  6   N/A
NEW CANAL        0300      82                N/A
SHELL BEACH      0300      83                N/A

OFFSHORE STATIONS

STATION/POSITION TIME  TEMP    WIND        PRES    WAVE
                       AIR SEA DIR/SP/G            HT/PER
                 (UTC) (F)     (DEG/KT/KT) (MB)    (FT/S)
64 S DAUPHIN ISL 0300   80 80  240/  6/  8 1014.5

$$





USA.gov is the U.S. government's official web portal to all federal, state and local government web resources and services.